Weather reports worldwide

Advertisment
Ustica, Italy (16400): temperature & dewpoint: 14.10.2018 16:00:00 - 20.10.2018 16:00:00 (CEST)Ustica, Italy (16400): wind speed: 14.10.2018 16:00:00 - 20.10.2018 16:00:00 (CEST)Ustica, Italy (16400): wind direction: 14.10.2018 16:00:00 - 20.10.2018 16:00:00 (CEST)Ustica, Italy (16400): reduced air pressure: 14.10.2018 16:00:00 - 20.10.2018 16:00:00 (CEST)Ustica, Italy (16400): visibility: 14.10.2018 16:00:00 - 20.10.2018 16:00:00 (CEST)Ustica, Italy (16400): sunshine duration: 14.10.2018 16:00:00 - 20.10.2018 16:00:00 (CEST)
Date & Time tt [°C] td [°C] ff [km/h] ff [kn] dd ppp [hPa] vv [km] sd [min]
20.10.2018 16:00:00 - - - - - - - -
20.10.2018 15:00:00 22,4 20,5 9 5 NE 1018,4 20 60
20.10.2018 14:00:00 22,2 21,2 11 6 NNE 1016,7 20 60
20.10.2018 13:00:00 22,2 21,4 9 5 NNE 1015,9 20 60
20.10.2018 12:00:00 22,0 21,3 11 6 NE 1016,8 20 60
20.10.2018 11:00:00 20,2 19,2 9 5 NE 1015,0 20 60
20.10.2018 10:00:00 20,4 19,6 11 6 NE 1014,7 20 60
20.10.2018 09:00:00 19,8 18,8 15 8 NE 1015,1 20 48
20.10.2018 08:00:00 19,8 19,8 15 8 NE 1014,8 20 42
20.10.2018 07:00:00 - - - - - - - -
20.10.2018 06:00:00 - - - - - - - -
20.10.2018 05:00:00 - - - - - - - -
20.10.2018 04:00:00 - - - - - - - -
20.10.2018 03:00:00 - - - - - - - -
20.10.2018 02:00:00 - - - - - - - -
20.10.2018 01:00:00 - - - - - - - -
20.10.2018 00:00:00 - - - - - - - -
19.10.2018 23:00:00 - - - - - - - -
19.10.2018 22:00:00 - - - - - - - -
19.10.2018 21:00:00 - - - - - - - -
19.10.2018 20:00:00 20,0 20,0 18 10 NE 1014,4 20 0
19.10.2018 19:00:00 20,4 20,4 18 10 NE 1015,1 20 60
19.10.2018 18:00:00 20,8 20,3 18 10 NE 1014,9 20 54
19.10.2018 17:00:00 21,4 20,7 18 10 NE 1013,9 20 60
19.10.2018 16:00:00 22,2 21,2 24 13 NE 1013,9 20 60
19.10.2018 15:00:00 22,4 21,4 18 10 ESE 1014,0 20 60
19.10.2018 14:00:00 22,2 20,7 22 12 NNE 1014,3 20 60
19.10.2018 13:00:00 22,2 21,2 22 12 ENE 1013,4 20 60
19.10.2018 12:00:00 22,0 20,1 28 15 NE 1013,5 20 60
19.10.2018 11:00:00 21,2 20,7 24 13 E 1014,1 20 60
19.10.2018 10:00:00 20,4 19,2 28 15 E 1013,2 20 60
19.10.2018 09:00:00 19,4 18,2 24 13 ESE 1013,3 20 60
19.10.2018 08:00:00 19,0 18,2 16 9 E 1012,7 20 48
19.10.2018 07:00:00 - - - - - - - -
19.10.2018 06:00:00 - - - - - - - -
19.10.2018 05:00:00 - - - - - - - -
19.10.2018 04:00:00 - - - - - - - -
19.10.2018 03:00:00 - - - - - - - -
19.10.2018 02:00:00 - - - - - - - -
19.10.2018 01:00:00 - - - - - - - -
19.10.2018 00:00:00 - - - - - - - -
18.10.2018 23:00:00 - - - - - - - -
18.10.2018 22:00:00 - - - - - - - -
18.10.2018 21:00:00 - - - - - - - -
18.10.2018 20:00:00 18,6 18,6 18 10 ESE 1010,3 15 0
18.10.2018 19:00:00 20,0 18,8 22 12 ESE 1010,2 15 0
18.10.2018 18:00:00 20,0 19,0 28 15 E 1009,5 15 0
18.10.2018 17:00:00 20,0 19,2 18 10 ESE 1009,1 10 0
18.10.2018 16:00:00 20,4 19,2 16 9 ESE 1010,6 15 0
18.10.2018 15:00:00 20,4 19,4 18 10 SE 1010,9 15 0
18.10.2018 14:00:00 20,2 19,4 16 9 ESE 1010,9 15 0
18.10.2018 13:00:00 20,4 19,1 18 10 ESE 1010,8 15 0
18.10.2018 12:00:00 20,2 19,2 22 12 SE 1010,6 15 0
18.10.2018 11:00:00 20,2 19,4 22 12 ESE 1010,6 10 0
18.10.2018 10:00:00 20,2 19,2 18 10 ESE 1010,5 15 0
18.10.2018 09:00:00 19,8 19,8 28 15 ESE 1010,1 15 24
18.10.2018 08:00:00 19,8 19,8 24 13 E 1010,1 15 42
18.10.2018 07:00:00 - - - - - - - -
18.10.2018 06:00:00 - - - - - - - -
18.10.2018 05:00:00 - - - - - - - -
18.10.2018 04:00:00 - - - - - - - -
18.10.2018 03:00:00 - - - - - - - -
18.10.2018 02:00:00 - - - - - - - -
18.10.2018 01:00:00 - - - - - - - -
18.10.2018 00:00:00 - - - - - - - -
17.10.2018 23:00:00 - - - - - - - -
17.10.2018 22:00:00 - - - - - - - -
17.10.2018 21:00:00 - - - - - - - -
17.10.2018 20:00:00 21,2 21,2 9 5 SSE 1013,1 20 0
17.10.2018 19:00:00 22,0 22,0 9 5 SE 1013,0 20 0
17.10.2018 18:00:00 22,8 19,6 8 4 SE 1013,0 20 36
17.10.2018 17:00:00 23,2 19,8 9 5 SE 1013,5 20 60
17.10.2018 16:00:00 23,0 19,2 9 5 SSE 1013,5 20 60
17.10.2018 15:00:00 23,0 19,2 9 5 SSE 1013,6 20 60
17.10.2018 14:00:00 23,0 19,9 9 5 SE 1014,0 20 60
17.10.2018 13:00:00 23,0 21,3 11 6 SE 1015,0 20 60
17.10.2018 12:00:00 23,0 19,9 9 5 SE 1015,5 20 60
17.10.2018 11:00:00 22,6 20,6 15 8 SE 1015,8 20 48
17.10.2018 10:00:00 22,4 21,6 11 6 SE 1015,5 20 48
17.10.2018 09:00:00 22,0 21,2 11 6 ESE 1015,5 20 30
17.10.2018 08:00:00 21,4 21,4 4 2 N 1014,5 20 0
17.10.2018 07:00:00 - - - - - - - -
17.10.2018 06:00:00 - - - - - - - -
17.10.2018 05:00:00 - - - - - - - -
17.10.2018 04:00:00 - - - - - - - -
17.10.2018 03:00:00 - - - - - - - -
17.10.2018 02:00:00 - - - - - - - -
17.10.2018 01:00:00 - - - - - - - -
17.10.2018 00:00:00 - - - - - - - -
16.10.2018 23:00:00 - - - - - - - -
16.10.2018 22:00:00 - - - - - - - -
16.10.2018 21:00:00 - - - - - - - -
16.10.2018 20:00:00 21,4 21,4 9 5 SE 1017,3 20 0
16.10.2018 19:00:00 21,4 21,4 11 6 SE 1017,2 20 0
16.10.2018 18:00:00 21,6 21,6 15 8 SE 1016,8 20 0
16.10.2018 17:00:00 22,4 22,1 29 16 SSE 1016,1 20 12
16.10.2018 16:00:00 23,0 21,0 22 12 SSE 1016,5 20 24
16.10.2018 15:00:00 22,8 20,8 29 16 SSE 1016,5 20 24
16.10.2018 14:00:00 22,6 19,7 22 12 SE 1016,9 20 36
16.10.2018 13:00:00 22,4 19,8 22 12 SE 1017,0 20 30
16.10.2018 12:00:00 22,0 20,0 18 10 SE 1017,0 20 18
16.10.2018 11:00:00 21,6 19,6 15 8 SE 1017,0 20 30
16.10.2018 10:00:00 21,4 20,2 11 6 SE 1016,9 20 30
16.10.2018 09:00:00 21,0 20,7 9 5 SE 1016,2 20 18
16.10.2018 08:00:00 20,8 20,8 8 4 SSE 1016,1 20 -
16.10.2018 07:00:00 - - - - - - - -
16.10.2018 06:00:00 - - - - - - - -
16.10.2018 05:00:00 - - - - - - - -
16.10.2018 04:00:00 - - - - - - - -
16.10.2018 03:00:00 - - - - - - - -
16.10.2018 02:00:00 - - - - - - - -
16.10.2018 01:00:00 - - - - - - - -
16.10.2018 00:00:00 - - - - - - - -
15.10.2018 23:00:00 - - - - - - - -
15.10.2018 22:00:00 - - - - - - - -
15.10.2018 21:00:00 - - - - - - - -
15.10.2018 20:00:00 21,0 21,0 5 3 SE 1014,8 20 0
15.10.2018 19:00:00 21,4 21,1 8 4 SSE 1014,4 20 12
15.10.2018 18:00:00 22,4 21,5 8 4 SE 1013,9 20 48
15.10.2018 17:00:00 23,0 20,4 8 4 SE 1013,4 20 48
15.10.2018 16:00:00 23,0 21,9 5 3 NE 1013,4 20 48
15.10.2018 15:00:00 23,0 21,3 5 3 N 1013,2 20 48
15.10.2018 14:00:00 23,0 21,0 8 4 NNE 1013,6 20 48
15.10.2018 13:00:00 22,8 21,7 5 3 NNE 1013,6 20 36
15.10.2018 12:00:00 22,6 19,4 8 4 NE 1013,9 18 24
15.10.2018 11:00:00 22,0 19,7 8 4 NNE 1013,5 18 24
15.10.2018 10:00:00 21,2 20,3 8 4 N 1013,5 18 12
15.10.2018 09:00:00 21,0 20,7 8 4 NNE 1013,2 18 12
15.10.2018 08:00:00 - - - - - - - -
15.10.2018 07:00:00 - - - - - - - -
15.10.2018 06:00:00 - - - - - - - -
15.10.2018 05:00:00 - - - - - - - -
15.10.2018 04:00:00 - - - - - - - -
15.10.2018 03:00:00 - - - - - - - -
15.10.2018 02:00:00 - - - - - - - -
15.10.2018 01:00:00 - - - - - - - -
15.10.2018 00:00:00 - - - - - - - -
14.10.2018 23:00:00 - - - - - - - -
14.10.2018 22:00:00 - - - - - - - -
14.10.2018 21:00:00 - - - - - - - -
14.10.2018 20:00:00 20,8 20,5 44 24 SE 1014,8 18 0
14.10.2018 19:00:00 20,6 20,0 34 18 ESE 1014,7 18 0
14.10.2018 18:00:00 21,0 20,4 37 20 ESE 1014,5 18 0
14.10.2018 17:00:00 21,4 19,4 41 22 SE 1014,4 18 12
14.10.2018 16:00:00 21,4 19,4 41 22 SE 1014,6 18 0

tt = temperature
td = dewpoint
ff = wind speed
dd = wind direction
ppp = reduced air pressure
vv = visibility
sd = sunshine duration

Next stations